STARLINK-3049, 49436

Orbit data source: Space-Track

STARLINK-3049, 49436 is a payload satellite owned by SpaceX/Seattle (US) in LEO that was launched on Sat, 13 Nov 2021 UTC via an FALCON 9 launch vehicle from the Air Force Eastern Test Range (AFETR). Payload-class satellites include a variety of spacecraft equipped with specific instruments for various scientific and technological missions. These include communications satellites like Starlink; space stations such as the ISS; scientific satellites like the Hubble; Earth observation satellites from companies like Planet Labs, Umbra, and HawkEye 360; GPS; miniature CubeSats for education and research; and military/defense satellites.

Loading next visibility...
Identifier
49436, 2021-104AE
Orbit
LEO
Country
Flag of USUS
Related business
Manufacturer
SpaceX/Seattle
Mission
Operational Commercial Communications
Bus & Motor
STARLINK, Unknown motor
Mass
290 kg wet, ~270 kg dry
Launch date (UTC)
2021-11-13 (5 years ago)
Launch vehicle
FALCON 9
Launch site
Air Force Eastern Test Range (AFETR)
Object type
Payload
Rocket body
Debris
Shape & HBR
Box + 1 Pan, 10.1 m
Radar Cross Section
13.562 m², Large (>1 m²)

Expand to show TLE details & history
Last TLE update: 1 week ago

TLE from 1 week ago
0 STARLINK-3049
1 49436U 21104AE  26154.74850597  .00012552  00000-0  80339-3 0  9998
2 49436  53.1935 182.7706 0003365  30.0988 330.0197 15.08927653251906
Epoch: 2026-06-03T17:57Z
TLE epoch observation values (Epoch: 2026-06-03T17:57:50.915Z)
Latitude
-0.00002°
Longitude
21.10577°
Altitude
538.354 km
Speed
7.596 km/s
True Right ascension
12h 11m 04s
True Declination
0° 00' 00"
Sunlit
Object was in daylight at epoch
Visualization orbit readout
Latitude
Unknown
Longitude
Unknown
Altitude
Unknown
Speed
Unknown
Apparent Right ascension
Unknown
Apparent Declination
Unknown
Sunlit
N/A
Visualization observer readout
Local Sidereal Time
16:13:56
Azimuth
Unknown
Elevation
Unknown
Doppler factor
Unknown
Orbital elements
Apogee altitude
542.052 km
Perigee altitude
537.396 km
Semi-major axis
6,917.861 km
Eccentricity
0.00034
Inclination
53.1935°
RAAN
182.7706°
Arg. of periapsis
30.0988°
True anomaly
330.00042°
Mean anomaly
330.0197°
Eccentric anomaly
330.01006°
Mean motion
3.77212 °/min
Orbital period
95.44 mins
BSTAR
0.00080339
Loading maneuver chart data...
Computing Atmospheric mass density...
Loading historical data...
Loading historical data...
Loading historical data...
Loading historical data...
Loading historical data...
Loading historical data...
Loading historical data...

Documentation

Showing up to 5 results
|